Concord, NC

9:24 AM EDT on May 26, 2017 (GMT -0400)
Concord Regional

Weather History for KJQF - April, 2014

Change the Weather History Date:

Friday, April 4, 2014

  Actual Average (KCLT) Record (KCLT)
Temperature  
Mean Temperature 71 °F -  
Max Temperature 80 °F 71 °F 87 °F (1999)
Min Temperature 62 °F 46 °F 29 °F (1936)
Cooling Degree Days 6    
Growing Degree Days 21 (Base 50)    
Moisture  
Dew Point 47 °F    
Average Humidity 44    
Maximum Humidity 63    
Minimum Humidity 28    
Precipitation  
Precipitation 0.00 in - - ()
Sea Level Pressure  
Sea Level Pressure 29.89 in    
Wind  
Wind Speed 10 mph (SW)    
Max Wind Speed 20 mph    
Max Gust Speed 29 mph    
Visibility 10 miles    
Events      
Averages and records for this station are not official NWS values.
T = Trace of Precipitation, MM = Missing Value Source: NWS Daily Summary

Daily Weather History Graph

Daily Weather History Graph

Search for Another Location

Airport or City:

Trip Planner

Search our weather history database for the weather conditions in past years. The results will help you decide how hot, cold, wet, or windy it might be!

Date:

Astronomy

Apr. 04, 2014 Rise Set
Actual Time 7:05 AM EDT 7:46 PM EDT
Civil Twilight 6:39 AM EDT 8:12 PM EDT
Nautical Twilight 6:09 AM EDT 8:42 PM EDT
Astronomical Twilight 5:38 AM EDT 9:14 PM EDT
Moon 10:28 AM EDT (4/4) No Moon Set
Length of Visible Light 13h 32m
Length of Day
12h 41m
Waxing Crescent, 25% of the Moon is Illuminated
Apr 4
Waxing Crescent
Apr 7
First Quarter
Apr 15
Full
Apr 22
Last Quarter
Apr 29
New

Hourly Weather History & Observations

Time (EDT) Temp. Heat Index Dew Point Humidity Pressure Visibility Wind Dir Wind Speed Gust Speed Precip Events Conditions
12:15 AM 71.6 °F - 37.4 °F 29% 29.95 in 10.0 mi SSW 10.4 mph - N/A   Clear
12:35 AM 71.6 °F - 39.2 °F 31% 29.95 in 10.0 mi SW 10.4 mph 16.1 mph N/A   Clear
12:55 AM 71.6 °F - 39.2 °F 31% 29.95 in 10.0 mi SSW 9.2 mph - N/A   Clear
1:15 AM 71.6 °F - 41.0 °F 33% 29.95 in 10.0 mi SW 8.1 mph - N/A   Clear
1:35 AM 71.6 °F - 41.0 °F 33% 29.95 in 10.0 mi SSW 9.2 mph - N/A   Clear
1:55 AM 71.6 °F - 41.0 °F 33% 29.95 in 10.0 mi SW 8.1 mph 16.1 mph N/A   Clear
2:15 AM 69.8 °F - 42.8 °F 38% 29.95 in 10.0 mi SW 9.2 mph - N/A   Clear
2:35 AM 69.8 °F - 42.8 °F 38% 29.94 in 10.0 mi SW 8.1 mph - N/A   Clear
2:55 AM 69.8 °F - 42.8 °F 38% 29.94 in 10.0 mi SSW 8.1 mph - N/A   Clear
3:15 AM 68.0 °F - 44.6 °F 43% 29.93 in 10.0 mi SSW 6.9 mph - N/A   Clear
3:35 AM 68.0 °F - 44.6 °F 43% 29.92 in 10.0 mi SW 8.1 mph - N/A   Clear
3:55 AM 68.0 °F - 44.6 °F 43% 29.91 in 10.0 mi SW 9.2 mph - N/A   Clear
4:15 AM 68.0 °F - 44.6 °F 43% 29.91 in 10.0 mi SSW 10.4 mph - N/A   Clear
4:35 AM 68.0 °F - 46.4 °F 46% 29.90 in 10.0 mi SSW 8.1 mph - N/A   Clear
4:55 AM 66.2 °F - 46.4 °F 49% 29.90 in 10.0 mi SSW 6.9 mph - N/A   Clear
5:15 AM 66.2 °F - 46.4 °F 49% 29.90 in 10.0 mi SW 9.2 mph - N/A   Clear
5:35 AM 66.2 °F - 46.4 °F 49% 29.90 in 10.0 mi SSW 6.9 mph - N/A   Clear
5:55 AM 64.4 °F - 48.2 °F 56% 29.89 in 10.0 mi SSW 9.2 mph - N/A   Clear
6:15 AM 64.4 °F - 48.2 °F 56% 29.89 in 10.0 mi SSW 9.2 mph - N/A   Clear
6:35 AM 64.4 °F - 48.2 °F 56% 29.89 in 10.0 mi SSW 11.5 mph - N/A   Clear
6:52 AM 64.4 °F - 48.2 °F 56% 29.88 in 10.0 mi SSW 10.4 mph - N/A   Clear
7:52 AM 62.6 °F - 50.0 °F 63% 29.92 in 10.0 mi SSW 5.8 mph - N/A   Clear
8:52 AM 66.2 °F - 51.8 °F 60% 29.90 in 10.0 mi SSW 8.1 mph - N/A   Clear
9:52 AM 68.0 °F - 53.6 °F 60% 29.89 in 10.0 mi SW 15.0 mph 20.7 mph N/A   Clear
10:52 AM 69.8 °F - 53.6 °F 56% 29.91 in 10.0 mi SW 15.0 mph 19.6 mph N/A   Clear
11:55 AM 71.6 °F - 55.4 °F 57% 29.91 in 10.0 mi SW 16.1 mph 24.2 mph N/A   Clear
12:52 PM 73.4 °F - 53.6 °F 50% 29.91 in 10.0 mi SW 16.1 mph 28.8 mph N/A   Clear
1:55 PM 77.0 °F - 53.6 °F 44% 29.91 in 10.0 mi SW 19.6 mph 26.5 mph N/A   Clear
2:52 PM 78.8 °F - 55.4 °F 44% 29.89 in 10.0 mi SW 12.7 mph 19.6 mph N/A   Mostly Cloudy
3:52 PM 78.8 °F - 55.4 °F 44% 29.86 in 10.0 mi SW 11.5 mph 19.6 mph N/A   Mostly Cloudy
4:52 PM 78.8 °F - 55.4 °F 44% 29.80 in 10.0 mi SSW 15.0 mph 19.6 mph N/A   Clear
5:52 PM 80.6 °F 80.3 °F 53.6 °F 39% 29.79 in 10.0 mi SSW 12.7 mph 19.6 mph N/A   Clear
6:52 PM 80.6 °F - 44.6 °F 28% 29.80 in 10.0 mi WSW 11.5 mph 20.7 mph N/A   Clear
7:52 PM 77.0 °F - 44.6 °F 32% 29.81 in 10.0 mi WSW 9.2 mph 18.4 mph N/A   Clear
8:52 PM 75.2 °F - 46.4 °F 36% 29.83 in 10.0 mi West 11.5 mph 23.0 mph N/A   Clear
9:50 PM 73.4 °F - 46.4 °F 38% 29.85 in 10.0 mi WSW 13.8 mph 20.7 mph N/A   Clear
10:15 PM 71.6 °F - 46.4 °F 41% 29.86 in 10.0 mi WSW 9.2 mph 18.4 mph N/A   Clear
10:35 PM 71.6 °F - 46.4 °F 41% 29.85 in 10.0 mi SW 11.5 mph - N/A   Clear
10:55 PM 71.6 °F - 46.4 °F 41% 29.86 in 10.0 mi SW 12.7 mph 17.3 mph N/A   Clear
11:15 PM 69.8 °F - 48.2 °F 46% 29.87 in 10.0 mi WSW 9.2 mph - N/A   Clear
11:35 PM 69.8 °F - 48.2 °F 46% 29.87 in 10.0 mi SW 8.1 mph - N/A   Clear
11:55 PM 69.8 °F - 48.2 °F 46% 29.87 in 10.0 mi WSW 9.2 mph - N/A   Clear